Location: A�n Tadlesse
(35.0351°N, 0.5353°E)
Time: 10:08:31
(UTC+00:00)

NOAA 11 - Pass Details

Date: 21 October 2019
Orbit: 833 x 850 km, 98.4° (Epoch: 18 November)

Event Time Altitude Azimuth Distance (km) Brightness Sun altitude
Rises 19:02:27 0° 169° (S) 3,381 7.2 -22.5°
Reaches altitude 10° 19:04:48 10° 170° (S) 2,448 6.5 -23.0°
Maximum altitude 19:10:14 80° 257° (WSW) 855 4.2 -24.1°
Drops below altitude 10° 19:15:41 10° 345° (NNW) 2,452 6.8 -25.2°
Sets 19:18:03 0° 346° (NNW) 3,388 7.6 -25.7°
